Location: Beneden-Haastrecht
(52.0012°N, 4.7557°E)
Time: 02:10:55
(UTC+00:00)

SAR-Lupe-1 - Pass Details

Date: 24 October 2020
Orbit: 480 x 485 km, 98.2° (Epoch: 22 November)

Event Time Altitude Azimuth Distance (km) Brightness Sun altitude
Rises 17:51:31 0° 14° (NNE) 2,558 7.6 -13.6°
Reaches altitude 10° 17:53:35 10° 14° (NNE) 1,673 6.6 -13.9°
Maximum altitude 17:57:11 88° 291° (WNW) 490 4.0 -14.4°
Drops below altitude 10° 18:00:45 10° 197° (SSW) 1,660 7.0 -15.0°
Sets 18:02:48 0° 197° (SSW) 2,535 7.9 -15.3°
